Preview of NWS' New Version of Forecast
This preview is not operational and should not be used for support decisions.

Regional Weather Roundup (RWR)

Issued by National Weather Service (NWS)

                            
000
ASUS45 KBOU 182210
RWRCO 

WEATHER ROUNDUP FOR COLORADO
NATIONAL WEATHER SERVICE DENVER/BOULDER CO
400 PM MDT MON MAR 18 2019

NOTE: "FAIR" INDICATES FEW OR NO CLOUDS BELOW 12000 FEET WITH NO
SIGNIFICANT WEATHER AND/OR OBSTRUCTIONS TO VISIBILITY.

COZ001>005-013-030-031-182300-
...NORTHWEST COLORADO...
  
CITY           SKY/WX    TMP DP  RH WIND       PRES   REMARKS
CRAIG          FAIR      38  24  57 VRB3      30.20S                  
HAYDEN         FAIR      32  24  72 SW8       30.20S WCI  25          
MEEKER         FAIR      48  21  34 W15G22    30.14S                  
RANGELY        FAIR      47  28  46 CALM      30.16S                  
RABBIT EARS PA FAIR      30  21  69 W12G22    30.19R WCI  21          
STEAMBOAT SPGS FAIR      38  19  46 SW6       30.17R                  
WALDEN         FAIR      30  18  59 N5        30.18R WCI  25          
$$

COZ006>008-011-182300-
...WEST CENTRAL VALLEYS...
  
CITY           SKY/WX    TMP DP  RH WIND       PRES   REMARKS
GRAND JUNCTION FAIR      59  26  28 NW12      30.10F                  
MONTROSE       CLOUDY    57  24  28 SW13      30.13F                  
EAGLE          FAIR      51  20  29 W20       30.14S                  
RIFLE          FAIR      57  23  26 W14G22    30.11S                  
DELTA          PTSUNNY   62  20  20 W8        30.11S                  
NUCLA          CLOUDY    57  25  28 SW14G24   30.16S                  
$$

COZ017>023-064>068-182300-
...SOUTHWEST COLORADO...
  
CITY           SKY/WX    TMP DP  RH WIND       PRES   REMARKS
DURANGO        PTSUNNY   53  25  33 VRB5      30.16F                  
CORTEZ         PTSUNNY   57  23  26 S7        30.13F                  
PAGOSA SPRINGS PTSUNNY   50  18  28 SW9       30.19F                  
TELLURIDE      CLOUDY    41  19  42 SW9       30.22F                  
WOLF CREEK PAS CLOUDY    27  16  63 SW16G29   30.31R WCI  14          
$$

COZ009-010-012-014-032>034-037-058>063-182300-
...CENTRAL COLORADO...
  
CITY           SKY/WX    TMP DP  RH WIND       PRES   REMARKS
ASPEN          PTSUNNY   48  11  22 NW6       30.14S                  
BUENA VISTA    FAIR      49  16  27 SW12G23   30.13R                  
COPPER MTN     FAIR      34  10  37 W20G29    30.21S WCI  22          
BERTHOUD PASS  PTSUNNY   23  12  63 NW25      30.19S WCI   7          
COTTONWOOD PAS PTSUNNY   39   9  28 W15G35    30.17S                  
GUNNISON       CLOUDY    30  19  63 E5        30.21F WCI  25          
GRANBY         CLOUDY    39  21  48 NW3       30.16S                  
KREMMLING      CLOUDY    36  25  64 CALM      30.16F                  
LEADVILLE      FAIR      36   8  31 W12G22    30.15S                  
MONARCH PASS   FAIR      28  16  59 W40G52    30.31R WCI  11          
SALIDA         FAIR      56  13  18 W16G23    30.20F                  
SUNLIGHT       PTSUNNY   32  19  59 SW8G24    30.25S WCI  25          
WILKERSON PASS FAIR      36  18  48 SW10G20   30.21S                  
$$

COZ069>075-182300-
...SAN LUIS VALLEY/SANGRE DE CRISTO MOUNTAINS...
  
CITY           SKY/WX    TMP DP  RH WIND       PRES   REMARKS
ALAMOSA        CLOUDY    49  15  25 SW10      30.14F                  
DEL NORTE      CLOUDY    47  25  42 W15       30.16F                  
LA VETA PASS   NOT AVBL                                               
SAGUACHE       PTSUNNY   48  27  43 CALM      30.15F                  
$$

COZ035-036-038>040-182300-
...NORTHERN COLORADO FRONT RANGE...
  
CITY           SKY/WX    TMP DP  RH WIND       PRES   REMARKS
DENVER INTL AP PTSUNNY   46  31  55 N8        30.10S                  
AURORA         PTSUNNY   46  32  59 N10       30.09S                  
FRONT RANGE AP PTSUNNY   46  36  66 N9        30.10S                  
ERIE MUNI ARPT FAIR      45  26  48 N3        30.16S                  
BOULDER MUN AP FAIR      43  28  56 NW5       30.11S                  
CENTENNIAL     PTSUNNY   49  33  54 N12       30.08S                  
BROOMFIELD     MOSUNNY   46  28  49 N6        30.11S                  
FORT COLLINS   PTSUNNY   46  26  45 NW3       30.13R                  
LONGMONT       FAIR      49  27  41 CALM      30.13S                  
$$

COZ041-046-047-076>085-087-088-182300-
...PIKES PEAK/PALMER DIVIDE AND SOUTHERN FOOTHILLS...
  
CITY           SKY/WX    TMP DP  RH WIND       PRES   REMARKS
COLO. SPRINGS  FAIR      50  25  37 SE15G26   30.10F                  
A. F. ACADEMY  FAIR      47  24  40 SE15      30.07F                  
SCHRIEVER AFB  NOT AVBL                                               
CHEYENNE MTN   PTSUNNY   45  24  43 SE17      30.05F                  
ELLICOTT         N/A    N/A N/A N/A S15       30.10F                  
FALCON         FAIR      47  23  39 S16G23    30.12F                  
FORT CARSON    FAIR      52  25  35 S15       30.09F                  
LIMON          FAIR      50  30  46 S14G28    30.11F                  
MONUMENT HILL  FAIR      45  28  53 MISG      30.10S                  
CANON CITY     NOT AVBL                                               
WALSENBURG     NOT AVBL                                               
TRINIDAD       PTSUNNY   63  20  19 SW20G30   30.07F                  
$$

COZ042>045-048>051-090-091-182300-
...NORTHEAST COLORADO...
  
CITY           SKY/WX    TMP DP  RH WIND       PRES   REMARKS
GREELEY ARPT   FAIR      48  29  47 NW5       30.12S                  
AKRON          FAIR      51  31  46 S13G23    30.12F                  
BURLINGTON     FAIR      54  32  43 S22G29    30.15F                  
WRAY           PTSUNNY   54  30  40 SE12      30.17S                  
YUMA           MOCLDY    52  30  43 SE13G21   30.13F                  
STERLING       FAIR      54  32  43 S12G18    30.11S                  
HOLYOKE        FAIR      54  27  35 SE13G20   30.17F                  
FORT MORGAN      N/A     53  28  37 S12G17    30.11F                  
$$

COZ086-089-092>099-182300-
...SOUTHEAST COLORADO...
  
CITY           SKY/WX    TMP DP  RH WIND       PRES   REMARKS
PUEBLO         FAIR      56  31  38 SE7G16    30.07F                  
LA JUNTA       FAIR      61  30  31 SE9       30.07F                  
LAMAR          FAIR      60  30  32 SE12G23   30.10F                  
SPRINGFIELD    NOT AVBL                                               
$$